[[{"header":{"parameterUnit":"m.s-1","parameterCategory":1,"la1":30.2991,"la2":30.254,"lo1":-89.0895,"lo2":-89.0444,"dy":0.0017,"dx":0.0017,"nx":28,"ny":28,"refTime":"2024-11-23T03:00:00:Z","depth":0,"parameterNumber":2,"parameterNumberName":"U-component_of_WINDS"},"data":[0,0,0,0,0,0,0,0,0,0,0,0,0,0,0,0,0,0,0,0,0,0,0,0,0,0,0,0,0,0,0,0,0,0,0,0,0,0,0,0,0,0,0,0,0,0,0,0,0,0,0,0,0,0,0,0,0,0,0.0346,0.0347,0,0.039,0.039,0.0391,0.041,0.041,0.041,0.041,0.0453,0.0455,0.0456,0,0,0,0,0,0,0,0,0,0,0,0,0,0.0278,0.0279,0.0346,0.0347,0.0347,0.039,0.039,0.0391,0.041,0.041,0.041,0.041,0.0453,0.0454,0.0456,0,0,0,0,0,0,0,0,0,0,0,0,0,0.0313,0.0279,0.0346,0.0362,0.0364,0.039,0.039,0.0391,0.041,0.041,0.041,0.041,0.0452,0.0454,0.0456,0.0468,0,0,0.0461,0.0462,0,0,0,0,0,0,0,0,0.0311,0.0315,0.0359,0.0361,0.0363,0.0395,0.0382,0.0417,0.0411,0.0393,0.041,0.041,0.0434,0.0437,0.0445,0.047,0.0472,0.0462,0.0463,0.0463,0.0464,0,0,0,0,0,0,0,0.0308,0.0314,0.0363,0.036,0.0362,0.0367,0.0371,0.0389,0.0413,0.0394,0.0396,0.0401,0.0435,0.0444,0.0447,0.0473,0.0462,0.0463,0.0464,0.0465,0.051,0.051,0,0,0,0,0,0,0.0304,0.0311,0.0362,0.0365,0.0336,0.0368,0.0373,0.0385,0.0413,0.0417,0.0401,0.0402,0.0441,0.0444,0.0448,0.0465,0.0463,0.0465,0.0466,0.051,0.051,0.051,0,0,0,0,0,0,0.0302,0.0308,0.036,0.0339,0.0345,0.0369,0.0382,0.0385,0.0394,0.0418,0.0422,0.0406,0.0441,0.0446,0.0463,0.0466,0.0466,0.0468,0.051,0.051,0.051,0.0498,0,0,0,0,0,0,0.03,0.0307,0.0313,0.0338,0.0347,0.0375,0.0382,0.0386,0.0398,0.0399,0.0423,0.0427,0.0441,0.0461,0.0465,0.0469,0.0469,0.051,0.051,0.051,0.0498,0.0497,0.0497,0,0,0,0,0,0.0297,0.0307,0.0313,0.0319,0.0354,0.0375,0.038,0.0396,0.0398,0.0403,0.0418,0.0427,0.0465,0.0462,0.0467,0.0472,0.051,0.051,0.051,0.0498,0.0497,0.0497,0,0,0,0,0,0,0.028,0.0311,0.0317,0.0336,0.0353,0.0379,0.0386,0.0395,0.0411,0.0412,0.043,0.0436,0.0452,0.0464,0.046,0.0485,0.0488,0.049,0.0477,0.0477,0.0476,0.0473,0.047,0,0,0,0,0,0.0278,0.0294,0.0319,0.0333,0.0341,0.0362,0.0372,0.0383,0.0401,0.0408,0.0425,0.0442,0.0458,0.0468,0.0484,0.05,0.0505,0.0505,0.0505,0.0504,0.0505,0.0514,0.0515,0.0511,0.0511,0.0511,0,0,0.0275,0.0293,0.0302,0.033,0.0344,0.0359,0.0368,0.0383,0.0395,0.041,0.0428,0.0441,0.0461,0.0478,0.0486,0.0488,0.0507,0.0505,0.0504,0.0505,0.0515,0.0515,0.0515,0.0512,0.0512,0.0512,0,0,0.0276,0.0292,0.0305,0.032,0.0342,0.0356,0.0359,0.0383,0.0393,0.0411,0.0423,0.0436,0.0464,0.0478,0.0488,0.0495,0.0503,0.05,0.0497,0.0506,0.0506,0.0507,0.0509,0.051,0.0501,0.0501,0.05,0,0.0269,0.0293,0.0311,0.0326,0.0337,0.0353,0.0366,0.0379,0.0405,0.0413,0.0415,0.0449,0.0464,0.0484,0.0486,0.0494,0.0498,0.0497,0.0505,0.0505,0.0506,0.0508,0.0509,0.05,0.05,0.05,0.05,0,0.0283,0.0299,0.0307,0.0333,0.0345,0.0359,0.0378,0.0389,0.0398,0.0412,0.043,0.0448,0.0468,0.0474,0.0483,0.0496,0.0496,0.0501,0.0505,0.0505,0.0508,0.0509,0.0499,0.0499,0.0499,0.05,0,0,0.0275,0.031,0.0313,0.0324,0.035,0.0363,0.0377,0.0397,0.0406,0.0423,0.0436,0.0458,0.0463,0.0475,0.0486,0.0494,0.0498,0.0498,0.0499,0.0498,0.0513,0.0509,0.051,0.0504,0.0504,0.0505,0.0511,0,0.028,0.0307,0.0323,0.0344,0.0359,0.0374,0.0387,0.0403,0.0416,0.043,0.0444,0.046,0.0466,0.0473,0.0481,0.0496,0.0502,0.0496,0.0516,0.0516,0.051,0.0512,0.0508,0.0513,0.0513,0.0513,0.0513,0,0.029,0.0307,0.0329,0.0354,0.036,0.0372,0.0391,0.0405,0.0424,0.0433,0.0446,0.0458,0.0473,0.0475,0.0497,0.0492,0.0501,0.051,0.051,0.0513,0.0515,0.0514,0.0515,0.0516,0.0515,0.0515,0.0515,0,0.0282,0.0311,0.0328,0.0337,0.0366,0.0373,0.0385,0.0405,0.0416,0.0433,0.044,0.0459,0.0469,0.0483,0.0498,0.0498,0.0518,0.0521,0.0526,0.0525,0.0529,0.0529,0.0532,0.0535,0.0535,0.0535,0.0535,0,0.0286,0.0299,0.0325,0.0335,0.035,0.0368,0.0382,0.0395,0.0412,0.0425,0.0439,0.0451,0.0471,0.0485,0.0498,0.0513,0.0518,0.0525,0.0528,0.0524,0.0523,0.053,0.053,0.0535,0.0535,0.0535,0.0535,0,0.0279,0.0297,0.0317,0.0342,0.0349,0.0359,0.038,0.0391,0.0404,0.0421,0.0426,0.0447,0.0464,0.0481,0.0504,0.0513,0.0528,0.0533,0.0522,0.0524,0.0527,0.0527,0.0535,0.0537,0.0538,0.0538,0.0538,0,0.0281,0.0291,0.0318,0.0328,0.034,0.0356,0.0367,0.0385,0.0397,0.0419,0.0427,0.0446,0.0461,0.0488,0.0506,0.0523,0.0528,0.053,0.0531,0.0526,0.0528,0.0528,0.0529,0.0529,0.0529,0.0529,0.0529,0,0.0281,0.029,0.0306,0.0326,0.034,0.0356,0.0372,0.0379,0.0401,0.0413,0.0431,0.0443,0.0467,0.0485,0.0505,0.0517,0.0527,0.0529,0.0531,0.0526,0.052,0.0524,0.0521,0.0528,0.0528,0.0529,0.0529,0.0529,0.0279,0.0289,0.031,0.0327,0.0342,0.0357,0.0368,0.0383,0.0399,0.042,0.043,0.0448,0.0467,0.0495,0.0507,0.0521,0.0524,0.0526,0.0527,0.0527,0.0527,0.0518,0.0525,0.0525,0.0525,0.0525,0.0525,0,0.0281,0.0295,0.0311,0.0334,0.0348,0.0356,0.0375,0.0386,0.0402,0.0419,0.0434,0.0455,0.0473,0.0492,0.051,0.0518,0.0523,0.0522,0.0522,0.0525,0.0523,0.052,0.0518,0.0518,0.0518,0.0518,0.0518,0.0518,0.0283,0.0301,0.0311,0.0336,0.035,0.0368,0.0378,0.0392,0.0406,0.0429,0.0444,0.0456,0.0474,0.0494,0.051,0.0515,0.0521,0.052,0.0526,0.0524,0.0525,0.0525,0.0522,0.0521,0.0521,0.0526,0.0526,0.0526]},{"header":{"parameterUnit":"m.s-1","parameterCategory":1,"la1":30.2991,"la2":30.254,"lo1":-89.0895,"lo2":-89.0444,"dy":0.0017,"dx":0.0017,"nx":28,"ny":28,"refTime":"2024-11-23T03:00:00:Z","depth":0,"parameterNumber":3,"parameterNumberName":"V-component_of_WINDS"},"data":[0,0,0,0,0,0,0,0,0,0,0,0,0,0,0,0,0,0,0,0,0,0,0,0,0,0,0,0,0,0,0,0,0,0,0,0,0,0,0,0,0,0,0,0,0,0,0,0,0,0,0,0,0,0,0,0,0,0,0.7707,0.7706,0,0.7678,0.7678,0.7678,0.7633,0.7632,0.7631,0.7631,0.7602,0.7602,0.7602,0,0,0,0,0,0,0,0,0,0,0,0,0,0.7723,0.7723,0.7707,0.7706,0.7706,0.7678,0.7678,0.7678,0.7633,0.7632,0.7631,0.763,0.7602,0.7602,0.7602,0,0,0,0,0,0,0,0,0,0,0,0,0,0.7707,0.7722,0.7707,0.768,0.7678,0.7678,0.7678,0.7677,0.7633,0.7632,0.7631,0.763,0.7602,0.7602,0.7602,0.7626,0,0,0.7602,0.7602,0,0,0,0,0,0,0,0,0.7708,0.7707,0.7685,0.7682,0.7679,0.7658,0.7673,0.766,0.7634,0.765,0.7631,0.7629,0.7622,0.762,0.7617,0.7625,0.7624,0.7602,0.7602,0.7602,0.7602,0,0,0,0,0,0,0,0.7709,0.7708,0.7695,0.7684,0.7681,0.767,0.7667,0.767,0.7643,0.7649,0.7645,0.7643,0.762,0.7618,0.7616,0.7623,0.7602,0.7602,0.7602,0.7602,0.7649,0.765,0,0,0,0,0,0,0.7714,0.7709,0.7696,0.7695,0.7691,0.7671,0.7667,0.7666,0.7643,0.7638,0.7644,0.7641,0.7618,0.7617,0.7615,0.7642,0.7602,0.7602,0.7602,0.7647,0.7649,0.765,0,0,0,0,0,0,0.7715,0.7713,0.7697,0.7701,0.7698,0.7672,0.7671,0.7666,0.7664,0.7639,0.7634,0.7646,0.7617,0.7615,0.7624,0.764,0.7602,0.7602,0.7646,0.7648,0.765,0.7695,0,0,0,0,0,0,0.7715,0.7714,0.7723,0.7701,0.7698,0.7707,0.7672,0.7666,0.7664,0.7659,0.764,0.7636,0.7616,0.7624,0.7624,0.7639,0.7602,0.7644,0.7647,0.7649,0.7692,0.7698,0.7703,0,0,0,0,0,0.7716,0.7737,0.7723,0.7722,0.7708,0.7708,0.7706,0.7682,0.7665,0.7674,0.7658,0.7636,0.7638,0.7625,0.7625,0.764,0.7643,0.7646,0.7649,0.7689,0.7697,0.7703,0,0,0,0,0,0,0.7761,0.7734,0.7718,0.7733,0.7723,0.77,0.771,0.7691,0.7686,0.7682,0.7654,0.765,0.7662,0.7652,0.7638,0.7662,0.7637,0.764,0.7668,0.7675,0.7681,0.7683,0.7602,0,0,0,0,0,0.7773,0.7774,0.775,0.7765,0.7761,0.7737,0.7735,0.7718,0.7707,0.7702,0.7687,0.7677,0.7675,0.7675,0.7672,0.769,0.7685,0.7701,0.7706,0.7711,0.7714,0.7723,0.7729,0.7659,0.7659,0.7659,0,0,0.7797,0.7782,0.7785,0.7774,0.7764,0.7766,0.7733,0.7737,0.7739,0.7703,0.771,0.7699,0.7685,0.7699,0.7704,0.7691,0.7732,0.7715,0.7719,0.7719,0.7726,0.7733,0.7739,0.7661,0.7661,0.7661,0,0,0.7842,0.7831,0.7842,0.7833,0.7819,0.7802,0.7805,0.7785,0.7776,0.7782,0.7755,0.7757,0.7754,0.7746,0.7741,0.7783,0.7762,0.7782,0.7813,0.7821,0.7827,0.7832,0.7846,0.7852,0.7785,0.7785,0.7785,0,0.7874,0.7876,0.7851,0.7856,0.7852,0.7819,0.7831,0.7823,0.7808,0.7806,0.7792,0.7788,0.7777,0.7787,0.7797,0.7795,0.7797,0.7785,0.7828,0.7833,0.7837,0.785,0.7856,0.7788,0.7787,0.7787,0.7787,0,0.7916,0.7918,0.7929,0.7915,0.7912,0.7921,0.7896,0.7897,0.788,0.7865,0.7872,0.7857,0.785,0.7851,0.7835,0.786,0.7852,0.7833,0.7808,0.7846,0.7859,0.7864,0.7791,0.779,0.779,0.7789,0,0,0.7989,0.7961,0.7965,0.7959,0.794,0.7941,0.7948,0.7941,0.7942,0.7933,0.7938,0.7936,0.7918,0.7913,0.7895,0.7903,0.7937,0.7883,0.7882,0.7894,0.7963,0.7977,0.7983,0.7923,0.7924,0.7924,0.7964,0,0.8031,0.804,0.8017,0.8033,0.8034,0.8003,0.8009,0.7998,0.7985,0.7984,0.7968,0.7968,0.7944,0.7941,0.7947,0.7931,0.795,0.7928,0.7927,0.7927,0.7932,0.799,0.8005,0.8043,0.7968,0.7969,0.797,0,0.808,0.8073,0.8089,0.8069,0.8069,0.8075,0.8066,0.8066,0.8053,0.8042,0.8036,0.8015,0.802,0.7996,0.8002,0.7988,0.7986,0.7978,0.7979,0.7978,0.7951,0.7991,0.8054,0.806,0.7977,0.7976,0.7976,0,0.8132,0.8127,0.8135,0.813,0.8108,0.8112,0.8103,0.8089,0.8086,0.8079,0.8077,0.807,0.8067,0.8062,0.804,0.8024,0.8049,0.8023,0.804,0.8041,0.8047,0.8047,0.8111,0.8046,0.8046,0.8046,0.8046,0,0.818,0.8191,0.8158,0.8163,0.8174,0.8148,0.8159,0.8147,0.8135,0.8137,0.811,0.8112,0.8083,0.8082,0.8065,0.8073,0.8071,0.8063,0.8058,0.8065,0.8066,0.8064,0.8061,0.8047,0.8047,0.8047,0.8046,0,0.824,0.8218,0.8226,0.8203,0.8198,0.8207,0.8188,0.8192,0.8176,0.8179,0.8178,0.8154,0.8152,0.8129,0.8122,0.811,0.8125,0.8115,0.8129,0.8126,0.8145,0.8143,0.821,0.8217,0.8147,0.8148,0.8149,0,0.8273,0.828,0.8258,0.8258,0.825,0.825,0.8246,0.822,0.8218,0.8204,0.821,0.8205,0.82,0.8198,0.818,0.8174,0.8164,0.8187,0.8163,0.817,0.8164,0.8164,0.8164,0.8193,0.8194,0.8195,0.8195,0,0.8333,0.8321,0.8318,0.8311,0.8308,0.8301,0.8293,0.8294,0.8265,0.8264,0.8261,0.8258,0.825,0.8246,0.8237,0.8227,0.8207,0.8203,0.8207,0.8214,0.8222,0.8218,0.8143,0.8202,0.8201,0.82,0.82,0.82,0.8379,0.8385,0.837,0.8367,0.8358,0.8351,0.8353,0.8338,0.8335,0.8327,0.8311,0.8311,0.8297,0.8283,0.8275,0.8274,0.8262,0.8267,0.8269,0.827,0.8274,0.8222,0.8272,0.8272,0.8272,0.8272,0.8272,0,0.8438,0.8427,0.8424,0.8413,0.8411,0.8391,0.8381,0.838,0.838,0.8369,0.8365,0.8362,0.8357,0.8338,0.8332,0.8335,0.8325,0.8334,0.8334,0.8332,0.8286,0.8283,0.8342,0.8342,0.8342,0.8342,0.8342,0.8342,0.8468,0.8476,0.8463,0.8465,0.8454,0.8453,0.8449,0.8442,0.8433,0.8431,0.8427,0.8415,0.84,0.8392,0.8388,0.8382,0.8381,0.8393,0.8384,0.8342,0.8335,0.8329,0.8326,0.8393,0.8393,0.843,0.8431,0.8431]}]]